sat.trackr.live / text

‹ back to catalog

STARLINK-31659

NORAD 59254 · 2024-050A

PAYLOAD ACTIVE UNKNOWN

§ Identity

Operator
Country
US
Launch date
2024-03-19
Launch site
AFWTR
Launch vehicle
Mass (kg)
RCS (m²)

Purposes: comms

External: N2YO · Heavens-Above · Gunter

§ Orbital elements

Epoch: 2026-09-20T22:19:55.110144Z

Period
93.85 min
Inclination
53.1617°
Eccentricity
0.0001050
Mean motion
15.34394097 rev/d
Perigee alt
462.0 km
Apogee alt
463.4 km
Semi-major
6,840.9 km
B*
3.0330e-5
RAAN
347.5414°
Arg perigee
95.8666°
Mean anomaly
264.2456°
Rev number
14,168

§ Raw data

STARLINK-316591 59254U 24050A   26263.93049896  .00000649  00000+0  30330-4 0  99942 59254  53.1617 347.5414 0001050  95.8666 264.2456 15.34394097141688

JSON: /api/v1/satellites/59254 · /tle

For live sub-satellite position, see the globe view (requires WebGL).

§ Visibility from observer

Set your observer location to see the next 7 days of passes ≥ 10°. The values pass through the URL so the page stays shareable.

No JS? Fill the form by hand. The geolocation button needs JavaScript.